STARLINK-32022, 60149

Orbit data source: Space-Track

STARLINK-32022, 60149 is a payload satellite owned by SpaceX/Seattle (US) in LEO that was launched on Thu, 27 Jun 2024 UTC via an FALCON 9 launch vehicle from the Air Force Eastern Test Range (AFETR). Payload-class satellites include a variety of spacecraft equipped with specific instruments for various scientific and technological missions. These include communications satellites like Starlink; space stations such as the ISS; scientific satellites like the Hubble; Earth observation satellites from companies like Planet Labs, Umbra, and HawkEye 360; GPS; miniature CubeSats for education and research; and military/defense satellites.

Loading next visibility...
Identifier
60149, 2024-120Q
Orbit
LEO
Country
Flag of USUS
Related business
Manufacturer
SpaceX/Seattle
Mission
Operational Commercial Communications
Bus & Motor
STARLINK V2M, Unknown motor
Mass
730 kg wet, ~700 kg dry
Launch date (UTC)
2024-06-27 (2 years ago)
Launch vehicle
FALCON 9
Launch site
Air Force Eastern Test Range (AFETR)
Object type
Payload
Rocket body
Debris
Shape & HBR
Box + 2 Pan, 17.7 m
Radar Cross Section
33.884 m², Large (>1 m²)

Expand to show TLE details & history
Last TLE update: 12 hours ago

TLE from 12 hours ago
0 STARLINK-32022
1 60149U 24120Q   26171.36118124 -.00001370  00000-0 -29431-4 0  9998
2 60149  53.1593 202.4589 0000938  84.4660 275.6449 15.34384573112189
Epoch: 2026-06-20T08:40Z
TLE epoch observation values (Epoch: 2026-06-20T08:40:06.059Z)
Latitude
-0.00005°
Longitude
163.85671°
Altitude
463.587 km
Speed
7.636 km/s
True Right ascension
13h 29m 50s
True Declination
0° 00' 00"
Sunlit
Object was in partial shadow at epoch
Visualization orbit readout
Latitude
Unknown
Longitude
Unknown
Altitude
Unknown
Speed
Unknown
Apparent Right ascension
Unknown
Apparent Declination
Unknown
Sunlit
N/A
Visualization observer readout
Local Sidereal Time
07:13:20
Azimuth
Unknown
Elevation
Unknown
Doppler factor
Unknown
Orbital elements
Apogee altitude
463.648 km
Perigee altitude
462.364 km
Semi-major axis
6,841.143 km
Eccentricity
0.00009
Inclination
53.1593°
RAAN
202.4589°
Arg. of periapsis
84.466°
True anomaly
275.6342°
Mean anomaly
275.6449°
Eccentric anomaly
275.63955°
Mean motion
3.83575 °/min
Orbital period
93.85 mins
BSTAR
-0.000029431
Loading maneuver chart data...
Computing Atmospheric mass density...
Loading historical data...
Loading historical data...
Loading historical data...
Loading historical data...
Loading historical data...
Loading historical data...
Loading historical data...

Documentation

Showing up to 5 results
|